TimeEDT,TemperatureF,Dew PointF,Humidity,Sea Level PressureIn,VisibilityMPH,Wind Direction,Wind SpeedMPH,Gust SpeedMPH,PrecipitationIn,Events,Conditions,WindDirDegrees,DateUTC
12:53 AM,69.1,61.0,75,30.07,10.0,NNE,8.1,-,N/A,,Partly Cloudy,30,2012-10-23 04:53:00
1:53 AM,68.0,61.0,78,30.06,10.0,NNE,5.8,-,N/A,,Partly Cloudy,20,2012-10-23 05:53:00
2:53 AM,66.9,61.0,81,30.04,10.0,North,4.6,-,N/A,,Partly Cloudy,10,2012-10-23 06:53:00
3:53 AM,66.9,62.1,84,30.03,10.0,North,5.8,-,N/A,,Mostly Cloudy,350,2012-10-23 07:53:00
4:53 AM,66.0,62.1,87,30.03,10.0,North,4.6,-,N/A,,Partly Cloudy,350,2012-10-23 08:53:00
5:53 AM,66.0,62.1,87,30.04,10.0,North,5.8,-,N/A,,Partly Cloudy,360,2012-10-23 09:53:00
6:53 AM,66.0,63.0,90,30.04,10.0,North,4.6,-,N/A,,Partly Cloudy,360,2012-10-23 10:53:00
7:53 AM,68.0,63.0,84,30.05,10.0,NNE,6.9,-,N/A,,Partly Cloudy,20,2012-10-23 11:53:00
8:53 AM,73.0,64.9,76,30.05,10.0,North,5.8,-,N/A,,Partly Cloudy,350,2012-10-23 12:53:00
9:53 AM,78.1,64.9,64,30.06,10.0,ENE,10.4,-,N/A,,Partly Cloudy,60,2012-10-23 13:53:00
10:53 AM,80.1,64.9,60,30.05,10.0,East,16.1,-,N/A,,Scattered Clouds,80,2012-10-23 14:53:00
11:53 AM,82.0,63.0,52,30.06,10.0,ENE,13.8,-,N/A,,Mostly Cloudy,70,2012-10-23 15:53:00
12:53 PM,84.0,64.9,53,30.04,10.0,ENE,18.4,24.2,N/A,,Mostly Cloudy,60,2012-10-23 16:53:00
1:53 PM,82.0,64.0,54,30.03,10.0,NE,17.3,-,N/A,,Mostly Cloudy,40,2012-10-23 17:53:00
2:53 PM,82.9,64.0,53,30.00,10.0,NE,15.0,-,N/A,,Scattered Clouds,50,2012-10-23 18:53:00
3:53 PM,82.0,64.0,54,30.00,10.0,NE,15.0,-,N/A,,Mostly Cloudy,40,2012-10-23 19:53:00
4:53 PM,82.0,63.0,52,29.99,10.0,ENE,16.1,-,N/A,,Scattered Clouds,60,2012-10-23 20:53:00
5:53 PM,80.1,64.0,58,30.01,10.0,ENE,16.1,-,N/A,,Mostly Cloudy,70,2012-10-23 21:53:00
6:53 PM,75.9,62.1,62,30.02,10.0,ENE,10.4,-,N/A,,Partly Cloudy,60,2012-10-23 22:53:00
7:53 PM,73.9,63.0,68,30.04,10.0,NE,10.4,-,N/A,,Clear,50,2012-10-23 23:53:00
8:53 PM,73.0,63.0,71,30.04,10.0,NE,8.1,-,N/A,,Clear,40,2012-10-24 00:53:00
9:53 PM,70.0,63.0,78,30.05,10.0,NNE,6.9,-,N/A,,Partly Cloudy,20,2012-10-24 01:53:00
10:53 PM,73.0,64.0,73,30.05,10.0,NE,8.1,-,N/A,,Scattered Clouds,40,2012-10-24 02:53:00
11:53 PM,72.0,64.9,78,30.04,10.0,NNE,5.8,-,N/A,,Mostly Cloudy,20,2012-10-24 03:53:00